Year,Month,Day,Hour,Minute,Value (Times are PST for temperature in C)
2017,06,23,00,00,12.60
2017,06,23,00,01,12.60
2017,06,23,00,02,12.60
2017,06,23,00,03,12.60
2017,06,23,00,04,12.60
2017,06,23,00,05,12.60
2017,06,23,00,06,12.60
2017,06,23,00,07,12.50
2017,06,23,00,08,12.50
2017,06,23,00,09,12.50
2017,06,23,00,10,12.50
2017,06,23,00,11,12.50
2017,06,23,00,12,12.50
2017,06,23,00,13,12.50
2017,06,23,00,14,12.50
2017,06,23,00,15,12.50
2017,06,23,00,16,12.50
2017,06,23,00,17,12.40
2017,06,23,00,18,12.40
2017,06,23,00,19,12.40
2017,06,23,00,20,12.40
2017,06,23,00,21,12.30
2017,06,23,00,22,12.30
2017,06,23,00,23,12.30
2017,06,23,00,24,12.30
2017,06,23,00,25,12.30
2017,06,23,00,26,12.30
2017,06,23,00,27,12.30
2017,06,23,00,28,12.30
2017,06,23,00,29,12.30
2017,06,23,00,30,12.30
2017,06,23,00,31,12.30
2017,06,23,00,32,12.30
2017,06,23,00,33,12.30
2017,06,23,00,34,12.30
2017,06,23,00,35,12.20
2017,06,23,00,36,12.20
2017,06,23,00,37,12.20
2017,06,23,00,38,12.20
2017,06,23,00,39,12.20
2017,06,23,00,40,12.10
2017,06,23,00,41,12.10
2017,06,23,00,42,12.00
2017,06,23,00,43,12.00
2017,06,23,00,44,12.00
2017,06,23,00,45,12.00
2017,06,23,00,46,11.90
2017,06,23,00,47,11.90
2017,06,23,00,48,11.90
2017,06,23,00,49,11.90
2017,06,23,00,50,11.90
2017,06,23,00,51,11.90
2017,06,23,00,52,11.90
2017,06,23,00,53,11.90
2017,06,23,00,54,11.90
2017,06,23,00,55,11.80
2017,06,23,00,56,11.80
2017,06,23,00,57,11.80
2017,06,23,00,58,11.80
2017,06,23,00,59,11.80
2017,06,23,01,00,11.80
2017,06,23,01,01,11.70
2017,06,23,01,02,11.70
2017,06,23,01,03,11.70
2017,06,23,01,04,11.70
2017,06,23,01,05,11.60
2017,06,23,01,06,11.60
2017,06,23,01,07,11.60
2017,06,23,01,08,11.60
2017,06,23,01,09,11.60
2017,06,23,01,10,11.60
2017,06,23,01,11,11.60
2017,06,23,01,12,11.60
2017,06,23,01,13,11.60
2017,06,23,01,14,11.60
2017,06,23,01,15,11.60
2017,06,23,01,16,11.60
2017,06,23,01,17,11.50
2017,06,23,01,18,11.40
2017,06,23,01,19,11.40
2017,06,23,01,20,11.40
2017,06,23,01,21,11.40
2017,06,23,01,22,11.40
2017,06,23,01,23,11.30
2017,06,23,01,24,11.30
2017,06,23,01,25,11.30
2017,06,23,01,26,11.30
2017,06,23,01,27,11.30
2017,06,23,01,28,11.30
2017,06,23,01,29,11.20
2017,06,23,01,30,11.20
2017,06,23,01,31,11.20
2017,06,23,01,32,11.20
2017,06,23,01,33,11.20
2017,06,23,01,34,11.20
2017,06,23,01,35,11.20
2017,06,23,01,36,11.20
2017,06,23,01,37,11.20
2017,06,23,01,38,11.20
2017,06,23,01,39,11.20
2017,06,23,01,40,11.20
2017,06,23,01,41,11.20
2017,06,23,01,42,11.20
2017,06,23,01,43,11.20
2017,06,23,01,44,11.20
2017,06,23,01,45,11.20
2017,06,23,01,46,11.10
2017,06,23,01,47,11.10
2017,06,23,01,48,11.10
2017,06,23,01,49,11.10
2017,06,23,01,50,11.00
2017,06,23,01,51,10.90
2017,06,23,01,52,10.90
2017,06,23,01,53,10.90
2017,06,23,01,54,10.90
2017,06,23,01,55,10.90
2017,06,23,01,56,10.90
2017,06,23,01,57,10.90
2017,06,23,01,58,10.90
2017,06,23,01,59,10.90
2017,06,23,02,00,10.90
2017,06,23,02,01,10.90
2017,06,23,02,02,10.90
2017,06,23,02,03,10.80
2017,06,23,02,04,10.80
2017,06,23,02,05,10.80
2017,06,23,02,06,10.70
2017,06,23,02,07,10.70
2017,06,23,02,08,10.70
2017,06,23,02,09,10.70
2017,06,23,02,10,10.60
2017,06,23,02,11,10.60
2017,06,23,02,12,10.60
2017,06,23,02,13,10.60
2017,06,23,02,14,10.60
2017,06,23,02,15,10.60
2017,06,23,02,16,10.60
2017,06,23,02,17,10.60
2017,06,23,02,18,10.60
2017,06,23,02,19,10.60
2017,06,23,02,20,10.60
2017,06,23,02,21,10.60
2017,06,23,02,22,10.60
2017,06,23,02,23,10.60
2017,06,23,02,24,10.60
2017,06,23,02,25,10.50
2017,06,23,02,26,10.40
2017,06,23,02,27,10.40
2017,06,23,02,28,10.40
2017,06,23,02,29,10.40
2017,06,23,02,30,10.40
2017,06,23,02,31,10.40
2017,06,23,02,32,10.40
2017,06,23,02,33,10.40
2017,06,23,02,34,10.30
2017,06,23,02,35,10.30
2017,06,23,02,36,10.30
2017,06,23,02,37,10.30
2017,06,23,02,38,10.20
2017,06,23,02,39,10.20
2017,06,23,02,40,10.20
2017,06,23,02,41,10.20
2017,06,23,02,42,10.20
2017,06,23,02,43,10.20
2017,06,23,02,44,10.20
2017,06,23,02,45,10.20
2017,06,23,02,46,10.20
2017,06,23,02,47,10.10
2017,06,23,02,48,10.10
2017,06,23,02,49,10.10
2017,06,23,02,50,10.10
2017,06,23,02,51,10.10
2017,06,23,02,52,10.10
2017,06,23,02,53,10.10
2017,06,23,02,54,10.10
2017,06,23,02,55,10.10
2017,06,23,02,56,10.10
2017,06,23,02,57,10.10
2017,06,23,02,58,10.10
2017,06,23,02,59,10.10
2017,06,23,03,00,10.10
2017,06,23,03,01,10.10
2017,06,23,03,02,10.10
2017,06,23,03,03,10.10
2017,06,23,03,04,10.10
2017,06,23,03,05,10.20
2017,06,23,03,06,10.20
2017,06,23,03,07,10.20
2017,06,23,03,08,10.20
2017,06,23,03,09,10.20
2017,06,23,03,10,10.20
2017,06,23,03,11,10.20
2017,06,23,03,12,10.20
2017,06,23,03,13,10.20
2017,06,23,03,14,10.20
2017,06,23,03,15,10.30
2017,06,23,03,16,10.20
2017,06,23,03,17,10.20
2017,06,23,03,18,10.20
2017,06,23,03,19,10.10
2017,06,23,03,20,10.10
2017,06,23,03,21,10.10
2017,06,23,03,22,10.10
2017,06,23,03,23,10.00
2017,06,23,03,24,9.90
2017,06,23,03,25,9.90
2017,06,23,03,26,9.90
2017,06,23,03,27,9.90
2017,06,23,03,28,9.90
2017,06,23,03,29,9.90
2017,06,23,03,30,9.90
2017,06,23,03,31,9.90
2017,06,23,03,32,9.90
2017,06,23,03,33,9.90
2017,06,23,03,34,9.90
2017,06,23,03,35,9.90
2017,06,23,03,36,9.90
2017,06,23,03,37,9.90
2017,06,23,03,38,9.90
2017,06,23,03,39,9.90
2017,06,23,03,40,9.90
2017,06,23,03,41,9.90
2017,06,23,03,42,9.90
2017,06,23,03,43,9.90
2017,06,23,03,44,9.90
2017,06,23,03,45,9.90
2017,06,23,03,46,9.90
2017,06,23,03,47,9.90
2017,06,23,03,48,9.90
2017,06,23,03,49,9.80
2017,06,23,03,50,9.80
2017,06,23,03,51,9.80
2017,06,23,03,52,9.70
2017,06,23,03,53,9.70
2017,06,23,03,54,9.70
2017,06,23,03,55,9.70
2017,06,23,03,56,9.70
2017,06,23,03,57,9.60
2017,06,23,03,58,9.60
2017,06,23,03,59,9.60
2017,06,23,04,00,9.60
2017,06,23,04,01,9.50
2017,06,23,04,02,9.50
2017,06,23,04,03,9.50
2017,06,23,04,04,9.50
2017,06,23,04,05,9.40
2017,06,23,04,06,9.40
2017,06,23,04,07,9.40
2017,06,23,04,08,9.40
2017,06,23,04,09,9.40
2017,06,23,04,10,9.40
2017,06,23,04,11,9.40
2017,06,23,04,12,9.40
2017,06,23,04,13,9.40
2017,06,23,04,14,9.40
2017,06,23,04,15,9.50
2017,06,23,04,16,9.50
2017,06,23,04,17,9.50
2017,06,23,04,18,9.50
2017,06,23,04,19,9.50
2017,06,23,04,20,9.50
2017,06,23,04,21,9.40
2017,06,23,04,22,9.40
2017,06,23,04,23,9.40
2017,06,23,04,24,9.40
2017,06,23,04,25,9.40
2017,06,23,04,26,9.40
2017,06,23,04,27,9.40
2017,06,23,04,28,9.30
2017,06,23,04,29,9.30
2017,06,23,04,30,9.30
2017,06,23,04,31,9.30
2017,06,23,04,32,9.30
2017,06,23,04,33,9.30
2017,06,23,04,34,9.20
2017,06,23,04,35,9.20
2017,06,23,04,36,9.20
2017,06,23,04,37,9.20
2017,06,23,04,38,9.20
2017,06,23,04,39,9.20
2017,06,23,04,40,9.30
2017,06,23,04,41,9.30
2017,06,23,04,42,9.30
2017,06,23,04,43,9.30
2017,06,23,04,44,9.30
2017,06,23,04,45,9.30
2017,06,23,04,46,9.30
2017,06,23,04,47,9.30
2017,06,23,04,48,9.30
2017,06,23,04,49,9.30
2017,06,23,04,50,9.30
2017,06,23,04,51,9.30
2017,06,23,04,52,9.30
2017,06,23,04,53,9.30
2017,06,23,04,54,9.20
2017,06,23,04,55,9.20
2017,06,23,04,56,9.20
2017,06,23,04,57,9.20
2017,06,23,04,58,9.20
2017,06,23,04,59,9.20
2017,06,23,05,00,9.20
2017,06,23,05,01,9.20
2017,06,23,05,02,9.20
2017,06,23,05,03,9.20
2017,06,23,05,04,9.20
2017,06,23,05,05,9.10
2017,06,23,05,06,9.10
2017,06,23,05,07,9.00
2017,06,23,05,08,9.00
2017,06,23,05,09,9.00
2017,06,23,05,10,9.00
2017,06,23,05,11,8.90
2017,06,23,05,12,8.90
2017,06,23,05,13,8.90
2017,06,23,05,14,8.90
2017,06,23,05,15,8.90
2017,06,23,05,16,8.90
2017,06,23,05,17,8.90
2017,06,23,05,18,8.90
2017,06,23,05,19,8.80
2017,06,23,05,20,8.90
2017,06,23,05,21,8.90
2017,06,23,05,22,8.90
2017,06,23,05,23,8.90
2017,06,23,05,24,8.90
2017,06,23,05,25,8.90
2017,06,23,05,26,8.90
2017,06,23,05,27,9.00
2017,06,23,05,28,9.00
2017,06,23,05,29,9.00
2017,06,23,05,30,9.00
2017,06,23,05,31,9.00
2017,06,23,05,32,8.90
2017,06,23,05,33,8.90
2017,06,23,05,34,8.90
2017,06,23,05,35,8.90
2017,06,23,05,36,8.90
2017,06,23,05,37,8.90
2017,06,23,05,38,8.80
2017,06,23,05,39,8.80
2017,06,23,05,40,8.80
2017,06,23,05,41,8.80
2017,06,23,05,42,8.80
2017,06,23,05,43,8.80
2017,06,23,05,44,8.90
2017,06,23,05,45,8.90
2017,06,23,05,46,8.90
2017,06,23,05,47,8.90
2017,06,23,05,48,9.00
2017,06,23,05,49,9.00
2017,06,23,05,50,9.00
2017,06,23,05,51,9.00
2017,06,23,05,52,9.10
2017,06,23,05,53,9.10
2017,06,23,05,54,9.10
2017,06,23,05,55,9.10
2017,06,23,05,56,9.10
2017,06,23,05,57,9.10
2017,06,23,05,58,9.20
2017,06,23,05,59,9.20
2017,06,23,06,00,9.20
2017,06,23,06,01,9.20
2017,06,23,06,02,9.20
2017,06,23,06,03,9.20
2017,06,23,06,04,9.30
2017,06,23,06,05,9.30
2017,06,23,06,06,9.40
2017,06,23,06,07,9.40
2017,06,23,06,08,9.50
2017,06,23,06,09,9.50
2017,06,23,06,10,9.60
2017,06,23,06,11,9.70
2017,06,23,06,12,9.70
2017,06,23,06,13,9.70
2017,06,23,06,14,9.80
2017,06,23,06,15,9.90
2017,06,23,06,16,9.90
2017,06,23,06,17,9.90
2017,06,23,06,18,10.10
2017,06,23,06,19,10.10
2017,06,23,06,20,10.10
2017,06,23,06,21,10.20
2017,06,23,06,22,10.20
2017,06,23,06,23,10.30
2017,06,23,06,24,10.40
2017,06,23,06,25,10.40
2017,06,23,06,26,10.50
2017,06,23,06,27,10.60
2017,06,23,06,28,10.70
2017,06,23,06,29,10.70
2017,06,23,06,30,10.80
2017,06,23,06,31,10.80
2017,06,23,06,32,10.90
2017,06,23,06,33,10.90
2017,06,23,06,34,11.00
2017,06,23,06,35,11.10
2017,06,23,06,36,11.10
2017,06,23,06,37,11.20
2017,06,23,06,38,11.20
2017,06,23,06,39,11.30
2017,06,23,06,40,11.30
2017,06,23,06,41,11.40
2017,06,23,06,42,11.40
2017,06,23,06,43,11.60
2017,06,23,06,44,11.60
2017,06,23,06,45,11.80
2017,06,23,06,46,11.90
2017,06,23,06,47,12.00
2017,06,23,06,48,12.20
2017,06,23,06,49,12.30
2017,06,23,06,50,12.50
2017,06,23,06,51,12.70
2017,06,23,06,52,12.80
2017,06,23,06,53,12.90
2017,06,23,06,54,13.10
2017,06,23,06,55,13.20
2017,06,23,06,56,13.30
2017,06,23,06,57,13.50
2017,06,23,06,58,13.60
2017,06,23,06,59,13.70
2017,06,23,07,00,13.70
2017,06,23,07,01,13.70
2017,06,23,07,02,13.80
2017,06,23,07,03,13.80
2017,06,23,07,04,13.80
2017,06,23,07,05,13.80
2017,06,23,07,06,13.90
2017,06,23,07,07,13.90
2017,06,23,07,08,14.00
2017,06,23,07,09,14.10
2017,06,23,07,10,14.20
2017,06,23,07,11,14.30
2017,06,23,07,12,14.40
2017,06,23,07,13,14.40
2017,06,23,07,14,14.50
2017,06,23,07,15,14.60
2017,06,23,07,16,14.70
2017,06,23,07,17,14.70
2017,06,23,07,18,14.70
2017,06,23,07,19,14.70
2017,06,23,07,20,14.60
2017,06,23,07,21,14.70
2017,06,23,07,22,14.70
2017,06,23,07,23,14.70
2017,06,23,07,24,14.70
2017,06,23,07,25,14.70
2017,06,23,07,26,14.70
2017,06,23,07,27,14.80
2017,06,23,07,28,14.80
2017,06,23,07,29,14.90
2017,06,23,07,30,15.00
2017,06,23,07,31,15.10
2017,06,23,07,32,15.20
2017,06,23,07,33,15.30
2017,06,23,07,34,15.40
2017,06,23,07,35,15.50
2017,06,23,07,36,15.70
2017,06,23,07,37,15.80
2017,06,23,07,38,15.80
2017,06,23,07,39,16.00
2017,06,23,07,40,16.10
2017,06,23,07,41,16.20
2017,06,23,07,42,16.30
2017,06,23,07,43,16.40
2017,06,23,07,44,16.40
2017,06,23,07,45,16.60
2017,06,23,07,46,16.70
2017,06,23,07,47,16.70
2017,06,23,07,48,16.80
2017,06,23,07,49,16.80
2017,06,23,07,50,16.90
2017,06,23,07,51,17.00
2017,06,23,07,52,17.10
2017,06,23,07,53,17.10
2017,06,23,07,54,17.30
2017,06,23,07,55,17.30
2017,06,23,07,56,17.30
2017,06,23,07,57,17.40
2017,06,23,07,58,17.50
2017,06,23,07,59,17.50
2017,06,23,08,00,17.40
2017,06,23,08,01,17.40
2017,06,23,08,02,17.40
2017,06,23,08,03,17.40
2017,06,23,08,04,17.30
2017,06,23,08,05,17.40
2017,06,23,08,06,17.40
2017,06,23,08,07,17.50
2017,06,23,08,08,17.60
2017,06,23,08,09,17.60
2017,06,23,08,10,17.70
2017,06,23,08,11,17.80
2017,06,23,08,12,17.80
2017,06,23,08,13,17.80
2017,06,23,08,14,17.80
2017,06,23,08,15,17.80
2017,06,23,08,16,17.80
2017,06,23,08,17,17.80
2017,06,23,08,18,17.80
2017,06,23,08,19,17.90
2017,06,23,08,20,17.90
2017,06,23,08,21,17.90
2017,06,23,08,22,17.90
2017,06,23,08,23,18.00
2017,06,23,08,24,18.10
2017,06,23,08,25,18.20
2017,06,23,08,26,18.20
2017,06,23,08,27,18.20
2017,06,23,08,28,18.20
2017,06,23,08,29,18.20
2017,06,23,08,30,18.30
2017,06,23,08,31,18.30
2017,06,23,08,32,18.30
2017,06,23,08,33,18.30
2017,06,23,08,34,18.30
2017,06,23,08,35,18.30
2017,06,23,08,36,18.40
2017,06,23,08,37,18.40
2017,06,23,08,38,18.50
2017,06,23,08,39,18.50
2017,06,23,08,40,18.50
2017,06,23,08,41,18.50
2017,06,23,08,42,18.50
2017,06,23,08,43,18.50
2017,06,23,08,44,18.50
2017,06,23,08,45,18.60
2017,06,23,08,46,18.60
2017,06,23,08,47,18.60
2017,06,23,08,48,18.60
2017,06,23,08,49,18.60
2017,06,23,08,50,18.60
2017,06,23,08,51,18.60
2017,06,23,08,52,18.70
2017,06,23,08,53,18.70
2017,06,23,08,54,18.80
2017,06,23,08,55,18.80
2017,06,23,08,56,18.90
2017,06,23,08,57,18.90
2017,06,23,08,58,19.00
2017,06,23,08,59,19.10
2017,06,23,09,00,19.10
2017,06,23,09,01,19.10
2017,06,23,09,02,19.20
2017,06,23,09,03,19.20
2017,06,23,09,04,19.20
2017,06,23,09,05,19.30
2017,06,23,09,06,19.30
2017,06,23,09,07,19.30
2017,06,23,09,08,19.30
2017,06,23,09,09,19.30
2017,06,23,09,10,19.30
2017,06,23,09,11,19.20
2017,06,23,09,12,19.20
2017,06,23,09,13,19.20
2017,06,23,09,14,19.20
2017,06,23,09,15,19.30
2017,06,23,09,16,19.40
2017,06,23,09,17,19.40
2017,06,23,09,18,19.40
2017,06,23,09,19,19.50
2017,06,23,09,20,19.40
2017,06,23,09,21,19.40
2017,06,23,09,22,19.40
2017,06,23,09,23,19.40
2017,06,23,09,24,19.40
2017,06,23,09,25,19.40
2017,06,23,09,26,19.30
2017,06,23,09,27,19.30
2017,06,23,09,28,19.40
2017,06,23,09,29,19.40
2017,06,23,09,30,19.50
2017,06,23,09,31,19.60
2017,06,23,09,32,19.70
2017,06,23,09,33,19.60
2017,06,23,09,34,19.60
2017,06,23,09,35,19.60
2017,06,23,09,36,19.60
2017,06,23,09,37,19.60
2017,06,23,09,38,19.60
2017,06,23,09,39,19.50
2017,06,23,09,40,19.60
2017,06,23,09,41,19.70
2017,06,23,09,42,19.60
2017,06,23,09,43,19.70
2017,06,23,09,44,19.80
2017,06,23,09,45,19.80
2017,06,23,09,46,19.90
2017,06,23,09,47,19.90
2017,06,23,09,48,19.90
2017,06,23,09,49,20.00
2017,06,23,09,50,20.10
2017,06,23,09,51,20.10
2017,06,23,09,52,20.10
2017,06,23,09,53,19.90
2017,06,23,09,54,19.90
2017,06,23,09,55,19.90
2017,06,23,09,56,19.90
2017,06,23,09,57,19.90
2017,06,23,09,58,19.90
2017,06,23,09,59,19.90
2017,06,23,10,00,19.90
2017,06,23,10,01,20.00
2017,06,23,10,02,20.10
2017,06,23,10,03,20.20
2017,06,23,10,04,20.20
2017,06,23,10,05,20.20
2017,06,23,10,06,20.30
2017,06,23,10,07,20.30
2017,06,23,10,08,20.30
2017,06,23,10,09,20.30
2017,06,23,10,10,20.20
2017,06,23,10,11,20.20
2017,06,23,10,12,20.20
2017,06,23,10,13,20.20
2017,06,23,10,14,20.30
2017,06,23,10,15,20.30
2017,06,23,10,16,20.30
2017,06,23,10,17,20.20
2017,06,23,10,18,20.10
2017,06,23,10,19,20.10
2017,06,23,10,20,20.20
2017,06,23,10,21,20.10
2017,06,23,10,22,20.10
2017,06,23,10,23,20.00
2017,06,23,10,24,19.90
2017,06,23,10,25,20.00
2017,06,23,10,26,20.10
2017,06,23,10,27,20.20
2017,06,23,10,28,20.20
2017,06,23,10,29,20.10
2017,06,23,10,30,20.10
2017,06,23,10,31,20.10
2017,06,23,10,32,20.10
2017,06,23,10,33,20.10
2017,06,23,10,34,20.00
2017,06,23,10,35,19.90
2017,06,23,10,36,19.80
2017,06,23,10,37,19.80
2017,06,23,10,38,20.00
2017,06,23,10,39,20.10
2017,06,23,10,40,20.20
2017,06,23,10,41,20.40
2017,06,23,10,42,20.40
2017,06,23,10,43,20.50
2017,06,23,10,44,20.60
2017,06,23,10,45,20.70
2017,06,23,10,46,20.70
2017,06,23,10,47,20.80
2017,06,23,10,48,20.90
2017,06,23,10,49,20.90
2017,06,23,10,50,20.90
2017,06,23,10,51,20.80
2017,06,23,10,52,20.80
2017,06,23,10,53,20.80
2017,06,23,10,54,20.70
2017,06,23,10,55,20.70
2017,06,23,10,56,20.70
2017,06,23,10,57,20.60
2017,06,23,10,58,20.60
2017,06,23,10,59,20.70
2017,06,23,11,00,20.80
2017,06,23,11,01,20.70
2017,06,23,11,02,20.80
2017,06,23,11,03,20.80
2017,06,23,11,04,20.80
2017,06,23,11,05,20.90
2017,06,23,11,06,21.00
2017,06,23,11,07,21.00
2017,06,23,11,08,21.10
2017,06,23,11,09,21.30
2017,06,23,11,10,21.30
2017,06,23,11,11,21.30
2017,06,23,11,12,21.20
2017,06,23,11,13,21.00
2017,06,23,11,14,20.90
2017,06,23,11,15,20.90
2017,06,23,11,16,20.90
2017,06,23,11,17,21.00
2017,06,23,11,18,21.10
2017,06,23,11,19,21.20
2017,06,23,11,20,21.30
2017,06,23,11,21,21.40
2017,06,23,11,22,21.50
2017,06,23,11,23,21.60
2017,06,23,11,24,21.60
2017,06,23,11,25,21.80
2017,06,23,11,26,21.90
2017,06,23,11,27,22.00
2017,06,23,11,28,22.00
2017,06,23,11,29,21.90
2017,06,23,11,30,21.70
2017,06,23,11,31,21.60
2017,06,23,11,32,21.60
2017,06,23,11,33,21.60
2017,06,23,11,34,21.60
2017,06,23,11,35,21.60
2017,06,23,11,36,21.60
2017,06,23,11,37,21.60
2017,06,23,11,38,21.60
2017,06,23,11,39,21.60
2017,06,23,11,40,21.80
2017,06,23,11,41,21.90
2017,06,23,11,42,22.00
2017,06,23,11,43,22.20
2017,06,23,11,44,22.30
2017,06,23,11,45,22.40
2017,06,23,11,46,22.40
2017,06,23,11,47,22.40
2017,06,23,11,48,22.40
2017,06,23,11,49,22.30
2017,06,23,11,50,22.30
2017,06,23,11,51,22.30
2017,06,23,11,52,22.30
2017,06,23,11,53,22.30
2017,06,23,11,54,22.30
2017,06,23,11,55,22.20
2017,06,23,11,56,22.20
2017,06,23,11,57,22.10
2017,06,23,11,58,22.00
2017,06,23,11,59,22.00
2017,06,23,12,00,22.00
2017,06,23,12,01,22.10
2017,06,23,12,02,22.10
2017,06,23,12,03,22.10
2017,06,23,12,04,22.10
2017,06,23,12,05,22.20
2017,06,23,12,06,22.20
2017,06,23,12,07,22.20
2017,06,23,12,08,22.20
2017,06,23,12,09,22.10
2017,06,23,12,10,22.20
2017,06,23,12,11,22.20
2017,06,23,12,12,22.30
2017,06,23,12,13,22.30
2017,06,23,12,14,22.30
2017,06,23,12,15,22.30
2017,06,23,12,16,22.30
2017,06,23,12,17,22.30
2017,06,23,12,18,22.30
2017,06,23,12,19,22.20
2017,06,23,12,20,22.10
2017,06,23,12,21,22.10
2017,06,23,12,22,22.10
2017,06,23,12,23,22.20
2017,06,23,12,24,22.30
2017,06,23,12,25,22.30
2017,06,23,12,26,22.40
2017,06,23,12,27,22.50
2017,06,23,12,28,22.50
2017,06,23,12,29,22.50
2017,06,23,12,30,22.40
2017,06,23,12,31,22.40
2017,06,23,12,32,22.30
2017,06,23,12,33,22.20
2017,06,23,12,34,22.20
2017,06,23,12,35,22.30
2017,06,23,12,36,22.40
2017,06,23,12,37,22.50
2017,06,23,12,38,22.60
2017,06,23,12,39,22.60
2017,06,23,12,40,22.60
2017,06,23,12,41,22.60
2017,06,23,12,42,22.50
2017,06,23,12,43,22.50
2017,06,23,12,44,22.50
2017,06,23,12,45,22.60
2017,06,23,12,46,22.70
2017,06,23,12,47,22.90
2017,06,23,12,48,22.90
2017,06,23,12,49,23.00
2017,06,23,12,50,22.90
2017,06,23,12,51,22.90
2017,06,23,12,52,22.80
2017,06,23,12,53,22.70
2017,06,23,12,54,22.70
2017,06,23,12,55,22.70
2017,06,23,12,56,22.80
2017,06,23,12,57,22.80
2017,06,23,12,58,22.80
2017,06,23,12,59,22.80
2017,06,23,13,00,22.90
2017,06,23,13,01,23.10
2017,06,23,13,02,23.20
2017,06,23,13,03,23.30
2017,06,23,13,04,23.40
2017,06,23,13,05,23.40
2017,06,23,13,06,23.40
2017,06,23,13,07,23.40
2017,06,23,13,08,23.30
2017,06,23,13,09,23.30
2017,06,23,13,10,23.20
2017,06,23,13,11,23.20
2017,06,23,13,12,23.30
2017,06,23,13,13,23.30
2017,06,23,13,14,23.30
2017,06,23,13,15,23.20
2017,06,23,13,16,23.10
2017,06,23,13,17,23.10
2017,06,23,13,18,23.10
2017,06,23,13,19,23.00
2017,06,23,13,20,22.90
2017,06,23,13,21,22.90
2017,06,23,13,22,22.80
2017,06,23,13,23,22.80
2017,06,23,13,24,22.90
2017,06,23,13,25,22.90
2017,06,23,13,26,23.00
2017,06,23,13,27,23.10
2017,06,23,13,28,23.20
2017,06,23,13,29,23.20
2017,06,23,13,30,23.30
2017,06,23,13,31,23.30
2017,06,23,13,32,23.40
2017,06,23,13,33,23.50
2017,06,23,13,34,23.60
2017,06,23,13,35,23.70
2017,06,23,13,36,23.80
2017,06,23,13,37,23.80
2017,06,23,13,38,23.80
2017,06,23,13,39,23.80
2017,06,23,13,40,23.70
2017,06,23,13,41,23.80
2017,06,23,13,42,23.80
2017,06,23,13,43,23.70
2017,06,23,13,44,23.70
2017,06,23,13,45,23.70
2017,06,23,13,46,23.70
2017,06,23,13,47,23.70
2017,06,23,13,48,23.70
2017,06,23,13,49,23.70
2017,06,23,13,50,23.70
2017,06,23,13,51,23.60
2017,06,23,13,52,23.40
2017,06,23,13,53,23.40
2017,06,23,13,54,23.50
2017,06,23,13,55,23.60
2017,06,23,13,56,23.70
2017,06,23,13,57,23.60
2017,06,23,13,58,23.40
2017,06,23,13,59,23.40
2017,06,23,14,00,23.40
2017,06,23,14,01,23.50
2017,06,23,14,02,23.60
2017,06,23,14,03,23.70
2017,06,23,14,04,23.70
2017,06,23,14,05,23.80
2017,06,23,14,06,23.90
2017,06,23,14,07,23.90
2017,06,23,14,08,23.80
2017,06,23,14,09,23.70
2017,06,23,14,10,23.60
2017,06,23,14,11,23.50
2017,06,23,14,12,23.60
2017,06,23,14,13,23.60
2017,06,23,14,14,23.70
2017,06,23,14,15,23.70
2017,06,23,14,16,23.70
2017,06,23,14,17,23.70
2017,06,23,14,18,23.70
2017,06,23,14,19,23.70
2017,06,23,14,20,23.70
2017,06,23,14,21,23.70
2017,06,23,14,22,23.70
2017,06,23,14,23,23.70
2017,06,23,14,24,23.90
2017,06,23,14,25,23.90
2017,06,23,14,26,24.00
2017,06,23,14,27,24.10
2017,06,23,14,28,24.10
2017,06,23,14,29,24.20
2017,06,23,14,30,24.20
2017,06,23,14,31,24.10
2017,06,23,14,32,24.00
2017,06,23,14,33,23.90
2017,06,23,14,34,23.90
2017,06,23,14,35,23.90
2017,06,23,14,36,23.80
2017,06,23,14,37,23.80
2017,06,23,14,38,23.90
2017,06,23,14,39,24.00
2017,06,23,14,40,24.10
2017,06,23,14,41,24.10
2017,06,23,14,42,24.10
2017,06,23,14,43,24.10
2017,06,23,14,44,24.10
2017,06,23,14,45,23.90
2017,06,23,14,46,23.90
2017,06,23,14,47,24.00
2017,06,23,14,48,24.00
2017,06,23,14,49,23.90
2017,06,23,14,50,24.00
2017,06,23,14,51,24.10
2017,06,23,14,52,24.10
2017,06,23,14,53,24.10
2017,06,23,14,54,24.10
2017,06,23,14,55,24.10
2017,06,23,14,56,24.10
2017,06,23,14,57,24.20
2017,06,23,14,58,24.30
2017,06,23,14,59,24.50
2017,06,23,15,00,24.60
2017,06,23,15,01,24.70
2017,06,23,15,02,24.80
2017,06,23,15,03,24.90
2017,06,23,15,04,25.10
2017,06,23,15,05,25.20
2017,06,23,15,06,25.20
2017,06,23,15,07,25.10
2017,06,23,15,08,25.00
2017,06,23,15,09,25.10
2017,06,23,15,10,25.20
2017,06,23,15,11,25.20
2017,06,23,15,12,25.30
2017,06,23,15,13,25.30
2017,06,23,15,14,25.30
2017,06,23,15,15,25.10
2017,06,23,15,16,25.00
2017,06,23,15,17,24.90
2017,06,23,15,18,24.80
2017,06,23,15,19,24.70
2017,06,23,15,20,24.70
2017,06,23,15,21,24.60
2017,06,23,15,22,24.60
2017,06,23,15,23,24.60
2017,06,23,15,24,24.70
2017,06,23,15,25,24.80
2017,06,23,15,26,24.90
2017,06,23,15,27,24.90
2017,06,23,15,28,24.90
2017,06,23,15,29,24.90
2017,06,23,15,30,24.90
2017,06,23,15,31,24.80
2017,06,23,15,32,24.70
2017,06,23,15,33,24.70
2017,06,23,15,34,24.80
2017,06,23,15,35,24.90
2017,06,23,15,36,24.90
2017,06,23,15,37,24.90
2017,06,23,15,38,25.00
2017,06,23,15,39,25.00
2017,06,23,15,40,25.00
2017,06,23,15,41,24.90
2017,06,23,15,42,24.90
2017,06,23,15,43,24.80
2017,06,23,15,44,24.70
2017,06,23,15,45,24.70
2017,06,23,15,46,24.70
2017,06,23,15,47,24.70
2017,06,23,15,48,24.80
2017,06,23,15,49,24.70
2017,06,23,15,50,24.70
2017,06,23,15,51,24.60
2017,06,23,15,52,24.50
2017,06,23,15,53,24.50
2017,06,23,15,54,24.50
2017,06,23,15,55,24.50
2017,06,23,15,56,24.50
2017,06,23,15,57,24.50
2017,06,23,15,58,24.50
2017,06,23,15,59,24.50
2017,06,23,16,00,24.70
2017,06,23,16,01,24.70
2017,06,23,16,02,24.80
2017,06,23,16,03,24.90
2017,06,23,16,04,25.00
2017,06,23,16,05,25.00
2017,06,23,16,06,24.90
2017,06,23,16,07,24.90
2017,06,23,16,08,24.90
2017,06,23,16,09,25.00
2017,06,23,16,10,25.10
2017,06,23,16,11,25.20
2017,06,23,16,12,25.20
2017,06,23,16,13,25.20
2017,06,23,16,14,25.10
2017,06,23,16,15,25.00
2017,06,23,16,16,25.00
2017,06,23,16,17,25.00
2017,06,23,16,18,24.90
2017,06,23,16,19,24.90
2017,06,23,16,20,25.00
2017,06,23,16,21,24.90
2017,06,23,16,22,24.90
2017,06,23,16,23,25.10
2017,06,23,16,24,25.20
2017,06,23,16,25,25.30
2017,06,23,16,26,25.40
2017,06,23,16,27,25.50
2017,06,23,16,28,25.60
2017,06,23,16,29,25.60
2017,06,23,16,30,25.60
2017,06,23,16,31,25.50
2017,06,23,16,32,25.50
2017,06,23,16,33,25.50
2017,06,23,16,34,25.50
2017,06,23,16,35,25.40
2017,06,23,16,36,25.40
2017,06,23,16,37,25.30
2017,06,23,16,38,25.20
2017,06,23,16,39,25.10
2017,06,23,16,40,25.00
2017,06,23,16,41,25.00
2017,06,23,16,42,25.00
2017,06,23,16,43,25.00
2017,06,23,16,44,25.00
2017,06,23,16,45,25.00
2017,06,23,16,46,25.00
2017,06,23,16,47,25.00
2017,06,23,16,48,25.00
2017,06,23,16,49,25.10
2017,06,23,16,50,25.20
2017,06,23,16,51,25.30
2017,06,23,16,52,25.40
2017,06,23,16,53,25.40
2017,06,23,16,54,25.50
2017,06,23,16,55,25.50
2017,06,23,16,56,25.60
2017,06,23,16,57,25.60
2017,06,23,16,58,25.50
2017,06,23,16,59,25.50
2017,06,23,17,00,25.50
2017,06,23,17,01,25.40
2017,06,23,17,02,25.50
2017,06,23,17,03,25.50
2017,06,23,17,04,25.50
2017,06,23,17,05,25.50
2017,06,23,17,06,25.40
2017,06,23,17,07,25.40
2017,06,23,17,08,25.40
2017,06,23,17,09,25.40
2017,06,23,17,10,25.30
2017,06,23,17,11,25.20
2017,06,23,17,12,25.20
2017,06,23,17,13,25.20
2017,06,23,17,14,25.20
2017,06,23,17,15,25.20
2017,06,23,17,16,25.20
2017,06,23,17,17,25.20
2017,06,23,17,18,25.20
2017,06,23,17,19,25.10
2017,06,23,17,20,25.10
2017,06,23,17,21,25.10
2017,06,23,17,22,25.00
2017,06,23,17,23,25.00
2017,06,23,17,24,25.00
2017,06,23,17,25,25.00
2017,06,23,17,26,25.00
2017,06,23,17,27,25.00